Weather History for Tin City, AK

Change the Weather History Date:

Wednesday, August 7, 2013

  Actual Average Record
Temperature  
Mean Temperature 54 °F -  
Max Temperature 61 °F 48 °F 63 °F (2003)
Min Temperature 48 °F 42 °F 41 °F (2012)
Degree Days  
Heating Degree Days 11    
Growing Degree Days 4 (Base 50)    
Moisture  
Dew Point 52 °F    
Average Humidity 97    
Maximum Humidity 100    
Minimum Humidity 86    
Precipitation  
Precipitation 0.44 in - - ()
Sea Level Pressure  
Sea Level Pressure 29.69 in    
Wind  
Wind Speed 20 mph (NNE)    
Max Wind Speed 29 mph    
Max Gust Speed 26 mph    
Visibility 6 miles    
Events Fog , Rain , Thunderstorm    
Averages and records for this station are not official NWS values.
T = Trace of Precipitation, MM = Missing Value Source: NWS Daily Summary

Daily Weather History Graph

Daily Weather History Graph

Search for Another Location

Airport:

Trip Planner

Search our weather history database for the weather conditions in past years. The results will help you decide how hot, cold, wet, or windy it might be!

Date:

Astronomy

Aug. 07, 2013 Rise Set
Actual Time 6:26 AM AKDT 12:05 AM AKDT
Civil Twilight 4:57 AM AKDT 1:31 AM AKDT
Nautical Twilight Sun does not rise Sun does not rise
Astronomical Twilight Sun does not rise Sun does not rise
Moon 8:25 AM AKDT (8/7) 11:08 PM AKDT (8/7)
Length of Visible Light 20h 33m
Length of Day
17h 39m
New Moon, 1% of the Moon is Illuminated
Aug 7
New Moon
Aug 14
First Quarter
Aug 20
Full
Aug 28
Last Quarter
Sep 5
New

Hourly Weather History & Observations

Time (AKDT) Temp. Dew Point Humidity Pressure Visibility Wind Dir Wind Speed Gust Speed Precip Events Conditions
12:35 AM 48.2 °F 48.2 °F 100% 29.78 in 2.0 mi NNE 20.7 mph - N/A Rain Light Rain
12:55 AM 49.1 °F 48.9 °F 99% 29.78 in 10.0 mi NNE 18.4 mph - 0.00 in   Mostly Cloudy
1:35 AM 50.0 °F 50.0 °F 100% 29.77 in 1.0 mi NNE 18.4 mph - N/A   Mostly Cloudy
1:55 AM 49.1 °F 49.1 °F 100% 29.76 in 0.2 mi NNE 19.6 mph - N/A Rain Light Rain
2:55 AM 49.6 °F 49.6 °F 100% 29.76 in 1.0 mi NNE 16.1 mph - N/A Rain Light Rain Showers
3:15 AM 50.0 °F 50.0 °F 100% 29.75 in 0.8 mi NNE 17.3 mph - N/A Rain Light Rain Showers
3:35 AM 50.0 °F 50.0 °F 100% 29.75 in 4.0 mi NNE 17.3 mph - N/A Rain Light Rain
3:55 AM 50.0 °F 50.0 °F 100% 29.75 in 1.2 mi NNE 17.3 mph - 0.00 in Rain Light Rain Showers
4:35 AM 50.0 °F 50.0 °F 100% 29.73 in 0.2 mi NNE 17.3 mph - N/A Fog , Rain Light Rain Showers
4:55 AM 50.0 °F 50.2 °F 100% 29.73 in 0.2 mi NNE 17.3 mph - 0.02 in Rain Light Rain Showers
5:15 AM 50.0 °F 50.0 °F 100% 29.73 in 0.2 mi NNE 17.3 mph - N/A Rain Light Rain Showers
5:55 AM 51.1 °F 51.3 °F 100% 29.72 in 1.0 mi NE 15.0 mph - N/A Fog Patches of Fog
6:35 AM 51.8 °F 51.8 °F 100% 29.71 in 4.0 mi NNE 16.1 mph - N/A   Mostly Cloudy
6:55 AM 51.1 °F 51.1 °F 100% 29.71 in 1.0 mi NNE 18.4 mph - 0.00 in   Mostly Cloudy
7:15 AM 51.8 °F 51.8 °F 100% 29.71 in 2.5 mi NNE 18.4 mph - N/A   Mostly Cloudy
7:35 AM 51.8 °F 51.8 °F 100% 29.70 in 10.0 mi NNE 18.4 mph - N/A   Mostly Cloudy
7:43 AM 51.8 °F 51.8 °F 100% 29.69 in 10.0 mi NE 19.6 mph - N/A   Mostly Cloudy
7:55 AM 51.8 °F 50.0 °F 94% 29.69 in 1.0 mi NNE 19.6 mph - N/A   Mostly Cloudy
8:55 AM 50.9 °F 50.9 °F 100% 29.69 in 0.5 mi NNE 18.4 mph - N/A Fog Fog
9:17 AM 51.8 °F 51.8 °F 100% 29.69 in 0.5 mi NNE 18.4 mph - N/A Fog Fog
9:37 AM 51.8 °F 51.8 °F 100% 29.68 in 0.2 mi NNE 21.9 mph - N/A Fog Fog
9:55 AM 51.3 °F 51.3 °F 100% 29.68 in 2.0 mi NNE 20.7 mph - N/A   Mostly Cloudy
9:57 AM 51.8 °F 51.8 °F 100% 29.68 in 1.8 mi NNE 21.9 mph - N/A   Mostly Cloudy
10:17 AM 51.8 °F 51.8 °F 100% 29.69 in 10.0 mi NNE 21.9 mph - N/A Fog Patches of Fog
10:55 AM 53.1 °F 53.4 °F 100% 29.68 in 10.0 mi NNE 20.7 mph - N/A   Mostly Cloudy
11:55 AM 56.7 °F 54.9 °F 94% 29.69 in 10.0 mi NNE 18.4 mph - N/A   Mostly Cloudy
12:55 PM 59.2 °F 55.6 °F 88% 29.68 in 10.0 mi NNE 20.7 mph - N/A   Mostly Cloudy
1:55 PM 57.7 °F 55.9 °F 94% 29.68 in 10.0 mi NNE 19.6 mph - N/A   Mostly Cloudy
2:55 PM 58.1 °F 55.6 °F 91% 29.67 in 10.0 mi NNE 20.7 mph - N/A   Mostly Cloudy
3:55 PM 57.6 °F 55.2 °F 92% 29.65 in 10.0 mi NNE 20.7 mph - N/A   Mostly Cloudy
4:55 PM 58.5 °F 55.2 °F 89% 29.65 in 10.0 mi NNE 20.7 mph - N/A   Mostly Cloudy
5:55 PM 60.3 °F 56.1 °F 86% 29.64 in 10.0 mi NNE 20.7 mph - N/A   Mostly Cloudy
6:55 PM 58.6 °F 55.8 °F 90% 29.64 in 10.0 mi NNE 19.6 mph - 0.00 in Rain , Thunderstorm Thunderstorms and Rain
7:17 PM 57.2 °F 55.4 °F 94% 29.66 in 1.0 mi North 17.3 mph 26.5 mph N/A Rain , Thunderstorm Heavy Thunderstorms and Rain
7:37 PM 59.0 °F 55.4 °F 88% 29.64 in 10.0 mi NE 23.0 mph - N/A Rain Light Rain Showers
7:55 PM 58.1 °F 56.5 °F 94% 29.63 in 10.0 mi NNE 19.6 mph - 0.40 in Rain Rain Showers
8:55 PM 54.7 °F 53.1 °F 94% 29.62 in 10.0 mi NNE 27.6 mph - 0.02 in Rain Light Rain Showers
9:17 PM 53.6 °F 53.6 °F 100% 29.62 in 10.0 mi NNE 26.5 mph - N/A   Mostly Cloudy
9:55 PM 53.6 °F 51.8 °F 94% 29.62 in 10.0 mi NNE 28.8 mph - N/A Rain Light Rain
10:17 PM 53.6 °F 51.8 °F 94% 29.62 in 10.0 mi NNE 28.8 mph - N/A   Mostly Cloudy
10:37 PM 53.6 °F 51.8 °F 94% 29.62 in 10.0 mi NNE 25.3 mph - N/A Thunderstorm Mostly Cloudy
10:55 PM 52.7 °F 52.2 °F 98% 29.62 in 10.0 mi NNE 26.5 mph - N/A   Mostly Cloudy
11:17 PM 51.8 °F 51.8 °F 100% 29.63 in 10.0 mi NNE 23.0 mph - N/A   Mostly Cloudy
11:55 PM 52.3 °F 51.6 °F 97% 29.62 in 10.0 mi NNE 25.3 mph - N/A   Mostly Cloudy